Regional Weather Roundup
Issued by NWS Spokane, WA

Current Version | Previous Version | Text Only | Print | Product List | Glossary On
Versions: 1 2 3 4 5 6 7 8 9 10 11 12 13 14 15 16 17 18 19 20 21 22 23 24 25 26 27 28 29 30 31 32 33 34 35 36 37 38 39 40 41 42 43 44 45 46 47 48 49 50
018
NZUS01 KOTX 271710
RWROTX
EASTERN WASHINGTON/NORTHERN IDAHO ROUNDUP
NATIONAL WEATHER SERVICE, SPOKANE WA
1000 AM PDT WED JUL 27 2016

Note: "fair" indicated few or no clouds below 12,000 feet with no
significant weather and/or obstructions to visibility.

...NORTHEAST WASHINGTON AND NORTHERN IDAHO PANHANDLE...

CITY           SKY/WX    TMP DP  RH WIND       PRES   REMARKS
SPOKANE INTL   MOSUNNY   76  53  44 NE6       30.09S
SPOKANE DOWNTO SUNNY     77  56  48 VRB3      30.08S
COEUR D ALENE  SUNNY     75  57  53 NE9       30.06F
DEER PARK      SUNNY     77  53  43 N6        30.09S
SANDPOINT      SUNNY     73  55  53 NE8       30.10S
BONNERS FERRY    N/A     72  55  56 NW5       30.13F

...SOUTHEAST WASHINGTON AND SOUTHERN IDAHO PANHANDLE...

CITY           SKY/WX    TMP DP  RH WIND       PRES   REMARKS
WALLA WALLA    SUNNY     80  53  39 SW12      30.05S
PULLMAN/MOSCOW SUNNY     78  54  43 W5        30.11S
LEWISTON       SUNNY     82  52  35 CALM      30.04S
LOWELL           N/A     73  56  54 CALM      30.05F

...COLUMBIA BASIN...

CITY           SKY/WX    TMP DP  RH WIND       PRES   REMARKS
EPHRATA        SUNNY     84  52  33 CALM      30.04S
MOSES LAKE     SUNNY     82  55  39 VRB3      30.05S
TRI CITIES     SUNNY     83  56  39 VRB7      30.02F
HERMISTON      SUNNY     81  56  42 W6        30.03F
PENDLETON      SUNNY     80  52  37 NW9       30.06F

...EAST SLOPES CASCADES...

CITY           SKY/WX    TMP DP  RH WIND       PRES   REMARKS
THE DALLES     SUNNY     76  57  51 NW9       30.03F
YAKIMA         SUNNY     84  53  34 VRB5      30.06F
ELLENSBURG     SUNNY     81  55  40 NW6       30.08S
STAMPEDE PASS  SUNNY     61  52  72 SW7       30.22S
WENATCHEE      SUNNY     79  55  43 N9        30.06S
OMAK           SUNNY     78  53  41 N18       30.07S

...SOUTHERN BRITISH COLUMBIA...

CITY           SKY/WX    TMP DP  RH WIND       PRES   REMARKS
PENTICTON      MOSUNNY   75  55  50 N10       30.10S
CASTLEGAR      MOSUNNY   68  61  77 N6        30.11F
CRANBROOK      PTSUNNY   70  52  52 VRB3      30.17F

...WESTERN MONTANA...

CITY           SKY/WX    TMP DP  RH WIND       PRES   REMARKS
MISSOULA       SUNNY     75  53  46 CALM      30.14F

...NEIGHBORING CITIES...

CITY           SKY/WX    TMP DP  RH WIND       PRES   REMARKS
SEATTLE        MOSUNNY   68  60  75 W6        30.15F
CALGARY        PTSUNNY   70  59  68 VRB2      30.21S



USA.gov is the U.S. government's official web portal to all federal, state and local government web resources and services.